Starlink 32506

operational
NORAD ID: 62167 Int'l Des: 2024-225 Owner: SPXS Country: US Constellation: starlink
LEOCIRCULAR

About Starlink 32506

Description loading...

Live Position

Loading 3D Globe...

Upcoming Passes

Altitude History

Altitude vs Time

uPlot chart will show altitude changes over time

Two-Line Element Set

1 62167U 24225E 25303.26156215 .00003723 00000-0 31966-3 0 9991
2 62167 70.0008 133.4940 0002425 268.0092 92.0789 14.98332630 50338
Epoch: Oct 30, 2025 • Age: 11 hours

Current Status

Altitude 594.8 km
Velocity 7.56 km/s
Sub-Earth Point -65.75°S, 142.28°E
Launch Date Nov 30, 2024
Age 0.9 years
Type internet

Technical Details

Classification Payload
Mass 730.00 kg
Dry Mass 700.00 kg
Total Mass 730.00 kg
Length 0.30 m
Diameter 4.10 m
Span 29.00 m
Shape Box + pan
Manufacturer SPXS
Bus Type Starlink V2M
Phase Status In Orbit
Owner/State SPXS/US

Large Constellations

Loading constellations...